User: anonymous   Login
Location: Axtheid
(49.6213°N, 11.8205°E)
Time: 19:30:59
(UTC+00:00)
Language:

Meteor 1-24 Rocket - Orbit

View from above orbital plane
View from above orbital plane
View from above satellite
View from above satellite

Ground track
Ground track

The orbit data is extracted from the following two-line orbital elements,

1 08800U 76032B   21110.55923988  .00000047  00000-0  18481-4 0  9995
2 08800  81.2475 292.0010 0094903 171.7646 188.5111 14.10160103315760
Epoch (UTC): 20 April 2021 13:25:18
Eccentricity: 0.0094903
inclination: 81.2475°
perigee height: 790 km
apogee height: 927 km
right ascension of ascending node: 292.0010°
argument of perigee: 171.7646°
revolutions per day: 14.10160103
mean anomaly at epoch: 188.5111°
orbit number at epoch: 31576

The dashed part of the orbit path shows where the satellite is in the earth's shadow,  

DLR